Wind_Speed
15 17 17 15 15 15 16 16 15 15 14 14 14 13 13 12 11 10 10 10 11 11 11 12 11 9 9 8 8 7 8 7 7 4 6 7 10 12 12 12 12 11 11
15 16 16 15 13 12 14 16 16 16 17 17 16 14 13 13 11 10 11 12 12 12 11 10 8 9 10 10 8 8 8 9 10 10 3 3 6 8 9 9 7 7 8
15 15 14 14 14 14 14 14 15 16 16 16 16 16 14 13 12 13 13 11 11 11 11 10 11 13 13 12 12 10 11 10 7 8 7 3 4 5 5 5 2 3 4
15 15 15 15 16 16 15 14 14 14 15 14 14 14 13 13 13 15 15 13 12 11 10 11 12 13 12 14 12 11 13 15 14 10 9 7 4 3 2 4 2 3 3
13 14 15 15 15 15 13 13 13 13 14 12 11 12 12 11 13 14 12 12 12 12 12 12 12 12 11 12 13 13 15 15 15 13 13 12 7 4 4 4 5 6 5
13 13 14 15 16 14 13 13 12 12 12 11 11 11 11 11 12 13 14 15 15 15 15 13 13 12 11 11 10 13 15 16 15 14 13 12 9 8 6 6 4 5 6
16 16 17 17 17 16 14 12 12 13 13 12 12 12 11 11 13 16 15 16 17 17 17 16 14 15 16 15 15 16 15 15 14 13 15 11 10 10 9 8 7 7 8
16 18 18 17 17 15 14 12 13 12 12 12 11 9 9 11 15 15 18 18 18 18 18 18 17 16 16 17 17 16 15 13 14 15 13 12 11 10 9 10 10 11 13
16 19 16 15 15 12 13 12 11 12 14 14 16 15 14 17 18 19 19 19 18 17 18 17 16 15 15 14 14 12 9 7 8 10 11 7 7 9 11 13 15 16 16
15 16 16 14 11 11 14 15 18 19 19 21 20 21 22 21 20 19 19 20 19 19 18 18 19 20 18 18 18 14 10 10 10 10 11 9 11 13 15 17 17 18 18
15 15 15 16 18 18 18 17 19 21 22 24 24 26 23 22 21 18 17 18 18 17 19 20 21 20 19 19 20 15 11 10 8 9 10 11 12 13 15 17 18 19 19
20 17 18 19 19 18 17 17 18 20 19 21 24 21 22 19 19 16 14 15 15 15 17 18 18 17 18 18 17 16 15 11 5 10 10 11 14 16 18 20 21 21 21
21 19 19 19 20 16 12 18 18 19 20 20 21 23 18 17 15 11 14 13 13 13 16 17 16 16 15 14 14 16 17 18 19 16 13 14 16 19 21 22 23 23 23
17 17 19 18 22 17 19 22 21 22 19 18 20 17 21 17 12 10 11 12 11 10 13 13 13 12 13 15 13 11 14 14 14 17 17 18 19 20 22 23 24 25 25
17 18 18 18 21 18 22 16 14 20 18 17 12 15 19 16 10 13 13 13 12 11 12 13 15 18 19 19 16 17 16 15 16 18 19 20 21 22 24 24 24 25 25
17 17 17 19 20 20 22 16 18 19 18 15 14 11 15 13 13 15 14 14 12 12 17 18 18 21 20 19 18 17 19 20 20 20 21 22 23 25 26 26 26 26 25
16 18 18 18 18 18 16 17 18 17 16 15 11 13 15 13 13 12 13 13 12 17 17 18 19 19 18 18 20 23 21 22 22 22 21 24 26 26 26 25 26 26 25
12 16 17 14 14 14 14 14 15 13 14 14 7 14 13 11 12 13 12 10 14 18 18 17 20 22 20 21 20 17 20 19 20 23 25 27 29 29 28 28 26 26 27
9 12 13 13 13 12 12 12 12 11 12 9 8 11 9 10 14 10 12 14 18 19 17 17 21 19 18 18 18 20 20 20 23 27 31 35 35 32 30 28 27 27 27
7 8 10 11 11 11 12 10 10 11 7 8 7 9 9 7 9 8 13 16 18 16 17 19 15 16 17 17 21 25 24 23 27 32 35 41 41 36 34 30 30 24 29
4 4 6 7 8 9 9 8 7 5 4 5 5 5 8 8 8 12 15 15 15 13 14 13 12 16 18 19 19 19 20 25 31 35 43 48 50 42 35 28 27 30 31
2 1 2 4 5 7 7 4 3 2 3 4 4 5 7 9 12 12 13 12 13 12 12 12 15 16 19 22 22 22 24 27 31 38 46 51 54 43 41 28 30 32 34
5 4 2 0 2 3 5 5 1 3 4 5 6 7 7 7 9 10 11 11 12 10 11 12 13 15 17 21 24 22 26 32 39 42 48 52 55 48 37 33 35 35 38
8 7 6 3 2 1 1 2 2 0 2 4 5 6 8 9 8 9 9 9 10 9 10 11 13 15 18 23 23 21 27 33 38 45 50 54 60 48 36 36 37 40 40
10 9 8 7 5 4 3 2 0 1 3 5 7 9 9 9 10 9 8 8 7 7 9 11 13 16 17 22 25 23 28 31 35 41 49 57 60 45 40 43 46 46 42
13 12 10 8 8 7 6 6 4 3 2 3 5 8 10 10 10 10 9 8 6 7 8 11 15 17 18 22 25 25 26 30 37 43 51 58 62 49 48 51 54 49 46
Wind_Direction
98 95 99 107 111 106 102 103 98 107 113 129 135 129 113 107 110 105 87 86 98 93 93 81 70 61 63 71 74 62 61 48 68 53 52 44 62 76 86 85 88 89 90
93 91 93 96 103 110 105 97 96 101 105 108 120 124 116 114 111 109 111 115 111 99 91 77 65 65 68 70 77 61 43 36 28 30 46 59 53 61 67 80 89 97 100
87 87 93 96 95 90 92 102 106 103 105 113 116 115 115 118 117 109 107 105 90 78 69 64 68 57 58 64 62 50 47 38 44 37 38 74 57 72 79 74 58 84 88
83 87 86 89 92 90 98 103 103 111 110 109 113 116 117 119 108 99 94 86 71 62 57 60 69 69 69 58 59 59 58 53 58 63 62 72 89 60 60 54 10 4 18
75 81 83 86 87 90 97 101 102 109 111 117 122 120 117 107 99 94 84 77 78 72 64 66 65 65 63 52 55 44 44 45 56 70 65 84 99 107 66 40 16 4 349
69 73 80 90 85 85 89 91 98 98 101 108 108 103 102 103 101 100 99 89 79 66 64 72 79 68 60 62 57 48 43 46 58 70 73 66 80 76 63 61 31 358 330
70 67 81 84 81 82 85 90 97 101 104 103 98 95 101 105 105 103 96 85 81 76 78 79 73 57 52 45 41 40 40 44 55 70 70 66 70 77 68 64 47 22 17
74 78 84 86 84 82 82 84 85 92 97 94 93 102 124 117 106 101 92 92 86 78 70 63 56 51 43 36 33 31 35 41 48 45 49 39 29 41 40 39 31 20 10
81 80 85 85 79 84 88 85 86 96 94 98 83 83 100 108 104 104 102 94 82 72 63 53 45 40 37 31 35 36 35 38 19 45 49 40 26 20 21 17 11 3 352
77 80 84 79 71 92 89 89 90 92 84 93 91 94 92 96 94 90 96 90 84 75 67 56 46 39 34 34 35 37 38 34 26 30 26 18 11 6 4 1 353 346 341
90 87 86 82 84 98 100 94 97 92 94 104 96 92 93 93 93 97 79 81 79 67 59 48 39 31 26 25 26 15 28 28 40 4 358 357 358 352 352 353 348 343 339
88 96 93 87 83 102 99 94 100 104 108 102 89 96 89 96 95 87 75 74 67 62 51 36 30 19 18 10 16 356 355 19 5 22 355 346 341 344 345 346 343 340 337
87 88 95 82 84 89 90 93 97 106 103 103 108 100 93 87 94 93 59 66 61 45 41 32 16 6 5 356 5 2 3 9 10 4 348 342 344 344 342 337 333 331 330
86 90 96 93 89 95 99 99 105 102 103 94 115 111 104 93 92 88 72 65 59 39 31 24 13 7 8 10 8 12 14 4 356 353 350 348 345 338 336 334 329 325 321
92 96 97 95 90 94 89 99 95 108 106 96 101 105 106 102 97 81 65 61 51 34 23 17 17 18 12 11 6 17 21 8 6 3 358 351 342 336 331 328 322 318 317
91 101 107 98 98 97 96 96 97 96 109 109 99 92 84 79 65 57 46 47 30 27 24 18 14 20 12 12 14 21 25 20 14 11 4 357 350 345 336 331 324 322 323
95 99 117 105 98 97 90 92 89 92 92 86 81 72 64 56 48 39 34 19 39 32 20 14 12 24 19 17 19 23 28 33 28 21 10 359 355 346 340 334 328 323 322
95 102 117 112 98 102 96 90 88 81 87 80 67 72 61 56 49 38 30 19 16 29 22 13 13 23 28 25 27 30 34 39 23 11 2 356 348 342 332 331 331 323 320
87 96 105 109 101 99 105 103 93 93 79 74 54 64 63 55 57 10 19 23 23 26 25 15 21 23 29 31 29 24 30 22 9 3 359 357 349 339 336 330 325 324 316
70 95 106 109 107 99 110 103 92 88 69 81 33 28 44 39 39 20 30 21 29 25 22 23 24 28 24 27 23 21 20 10 4 3 359 359 354 346 340 333 331 333 322
80 82 115 116 115 107 105 109 94 76 59 70 51 15 11 15 20 24 27 28 33 26 28 31 25 22 19 15 16 9 2 358 7 3 359 358 359 351 344 339 343 334 324
150 55 74 122 126 123 112 91 80 43 357 0 354 5 358 9 13 16 23 34 35 35 40 31 26 21 18 13 4 2 2 1 3 1 0 358 358 352 342 343 345 335 330
189 194 244 114 146 149 137 129 77 0 357 340 337 337 340 5 10 12 26 32 37 38 36 28 20 14 13 9 5 5 3 5 2 0 359 359 358 356 353 350 346 337 325
198 205 208 219 238 204 204 148 124 246 335 336 336 329 348 359 359 11 25 31 33 35 23 16 8 9 8 4 3 5 3 6 1 358 357 357 359 -0 358 349 343 333 329
205 203 214 211 218 236 234 223 180 59 43 34 28 16 9 -0 357 3 10 23 28 26 15 4 357 1 3 7 3 359 2 3 1 358 357 358 360 0 356 350 344 343 341
217 216 211 214 214 223 238 250 248 260 310 10 22 19 10 359 354 357 3 11 10 16 7 354 352 355 1 1 1 357 359 0 358 357 358 357 359 0 355 351 348 347 342
Height
5886 5885 5885 5886 5887 5887 5887 5888 5888 5888 5888 5888 5890 5891 5891 5892 5893 5894 5894 5895 5896 5896 5897 5897 5896 5895 5895 5895 5894 5892 5890 5890 5891 5892 5890 5891 5891 5894 5896 5896 5899 5901 5903
5888 5888 5888 5888 5889 5891 5891 5891 5891 5891 5891 5891 5892 5893 5894 5894 5895 5896 5897 5898 5898 5899 5899 5898 5898 5898 5897 5897 5896 5894 5893 5893 5892 5890 5890 5891 5892 5894 5895 5897 5900 5901 5902
5891 5891 5891 5891 5891 5891 5892 5893 5893 5894 5895 5896 5896 5896 5896 5896 5897 5898 5899 5900 5900 5900 5900 5899 5899 5899 5899 5899 5897 5896 5894 5894 5892 5892 5891 5893 5895 5897 5898 5900 5902 5902 5902
5892 5893 5893 5893 5893 5893 5895 5895 5895 5896 5897 5897 5897 5898 5899 5899 5900 5901 5901 5901 5901 5901 5901 5901 5901 5901 5900 5899 5897 5896 5896 5895 5894 5893 5893 5893 5896 5898 5901 5901 5902 5902 5901
5895 5894 5894 5894 5894 5895 5896 5896 5896 5896 5897 5897 5898 5899 5899 5900 5901 5902 5902 5903 5903 5904 5903 5903 5903 5904 5903 5901 5898 5896 5896 5896 5896 5895 5895 5896 5898 5898 5899 5900 5900 5900 5900
5898 5897 5896 5897 5896 5896 5897 5898 5898 5898 5899 5898 5899 5900 5900 5901 5902 5903 5904 5905 5906 5906 5905 5904 5905 5905 5903 5902 5901 5901 5900 5898 5898 5899 5899 5896 5897 5897 5898 5899 5900 5900 5900
5899 5898 5898 5898 5898 5899 5899 5900 5899 5900 5900 5901 5901 5902 5902 5902 5904 5905 5906 5907 5907 5908 5907 5907 5906 5905 5904 5904 5904 5903 5900 5899 5899 5899 5899 5900 5900 5899 5899 5899 5899 5899 5899
5902 5901 5901 5902 5902 5902 5902 5902 5903 5903 5904 5904 5904 5904 5904 5905 5907 5909 5909 5910 5910 5910 5909 5909 5908 5907 5905 5904 5903 5902 5901 5899 5898 5898 5897 5899 5900 5899 5898 5898 5897 5897 5896
5903 5902 5904 5905 5905 5906 5906 5906 5907 5907 5907 5907 5908 5908 5909 5910 5911 5911 5912 5912 5912 5912 5911 5912 5911 5909 5907 5906 5906 5904 5903 5902 5901 5898 5898 5900 5901 5900 5898 5895 5894 5894 5894
5905 5905 5906 5907 5908 5907 5908 5908 5909 5910 5911 5911 5910 5910 5912 5915 5918 5918 5916 5913 5914 5914 5914 5914 5913 5911 5910 5909 5907 5907 5907 5906 5906 5902 5899 5900 5899 5897 5895 5893 5893 5892 5891
5906 5907 5909 5909 5910 5909 5911 5911 5912 5914 5913 5912 5916 5917 5917 5917 5919 5921 5921 5917 5916 5916 5915 5914 5914 5913 5912 5910 5908 5904 5903 5904 5898 5904 5901 5899 5899 5897 5895 5892 5891 5889 5887
5909 5911 5911 5912 5912 5914 5914 5914 5914 5916 5915 5918 5920 5921 5922 5921 5920 5924 5924 5920 5918 5918 5917 5917 5916 5916 5914 5912 5910 5905 5904 5895 5900 5899 5899 5898 5897 5894 5891 5888 5887 5885 5882
5914 5914 5913 5914 5915 5916 5917 5917 5917 5919 5918 5922 5923 5923 5924 5923 5924 5926 5923 5923 5922 5921 5920 5919 5919 5918 5916 5914 5912 5906 5903 5899 5895 5896 5898 5896 5893 5889 5887 5885 5883 5880 5877
5918 5918 5917 5918 5916 5918 5920 5919 5922 5922 5923 5924 5924 5922 5921 5924 5927 5928 5926 5924 5924 5924 5923 5923 5922 5920 5917 5914 5912 5912 5906 5904 5902 5899 5895 5892 5889 5888 5885 5882 5878 5875 5872
5921 5921 5922 5922 5921 5922 5919 5924 5926 5926 5927 5925 5925 5926 5927 5929 5930 5930 5928 5926 5926 5925 5924 5923 5921 5918 5915 5912 5911 5909 5907 5904 5901 5898 5895 5893 5890 5886 5883 5879 5875 5871 5867
5924 5925 5925 5926 5926 5927 5926 5929 5929 5929 5929 5930 5930 5931 5932 5932 5931 5931 5929 5927 5927 5926 5923 5922 5921 5918 5915 5912 5910 5906 5905 5903 5900 5897 5894 5892 5888 5884 5879 5875 5870 5865 5861
5927 5927 5928 5929 5930 5931 5931 5932 5934 5935 5933 5932 5933 5933 5934 5933 5933 5933 5935 5934 5929 5927 5926 5924 5922 5919 5916 5913 5909 5905 5904 5902 5900 5898 5894 5890 5885 5881 5877 5872 5865 5860 5856
5930 5930 5931 5933 5933 5933 5934 5935 5935 5936 5936 5935 5935 5936 5938 5939 5937 5937 5936 5935 5930 5928 5926 5924 5922 5919 5918 5913 5911 5909 5905 5904 5901 5898 5894 5889 5883 5878 5872 5867 5862 5856 5850
5932 5933 5934 5934 5935 5936 5937 5938 5939 5940 5940 5937 5938 5938 5940 5939 5939 5938 5938 5935 5931 5929 5927 5926 5921 5920 5918 5916 5913 5909 5906 5904 5901 5897 5892 5887 5880 5872 5866 5860 5856 5851 5844
5934 5934 5934 5935 5936 5937 5938 5939 5940 5942 5943 5940 5940 5938 5940 5940 5940 5940 5937 5935 5931 5930 5929 5927 5924 5922 5919 5916 5912 5908 5905 5903 5899 5894 5889 5883 5875 5866 5859 5854 5849 5843 5835
5936 5936 5936 5936 5937 5938 5939 5940 5942 5942 5943 5943 5941 5940 5939 5940 5940 5938 5937 5934 5933 5932 5930 5929 5926 5922 5919 5916 5914 5911 5907 5901 5896 5891 5884 5877 5870 5861 5855 5849 5843 5837 5830
5937 5937 5938 5938 5938 5939 5940 5941 5942 5942 5943 5944 5943 5942 5941 5940 5939 5939 5938 5936 5936 5934 5933 5929 5925 5924 5921 5917 5914 5910 5905 5901 5895 5888 5881 5873 5867 5859 5850 5844 5840 5832 5823
5937 5938 5938 5939 5940 5940 5941 5942 5943 5944 5945 5945 5945 5944 5943 5942 5941 5941 5939 5938 5937 5935 5933 5930 5927 5926 5923 5919 5913 5909 5904 5899 5892 5885 5880 5872 5864 5855 5845 5839 5833 5826 5816
5936 5938 5939 5940 5940 5941 5942 5942 5943 5944 5945 5946 5946 5946 5944 5943 5942 5941 5940 5939 5937 5935 5933 5931 5928 5926 5923 5918 5913 5909 5904 5899 5892 5884 5877 5869 5859 5849 5841 5835 5828 5818 5808
5934 5936 5938 5939 5940 5941 5942 5942 5943 5944 5945 5946 5945 5946 5945 5944 5942 5941 5940 5938 5936 5935 5934 5932 5929 5926 5922 5919 5914 5909 5905 5899 5893 5886 5875 5866 5857 5847 5838 5831 5820 5808 5798
5932 5934 5935 5938 5939 5940 5941 5942 5943 5944 5944 5945 5945 5945 5944 5943 5941 5940 5939 5937 5935 5934 5934 5932 5929 5926 5923 5919 5914 5909 5904 5897 5891 5881 5872 5862 5852 5843 5833 5822 5811 5800 5789